Location: ?????
(42.2640°N, 43.4211°E)
Time: 14:00:54
(UTC+00:00)

Cosmos 1461 - Pass Details

Date: 07 August 2020
Orbit: 501 x 665 km, 65.0° (Epoch: 20 September)

Event Time Altitude Azimuth Distance (km) Brightness Sun altitude
Exits shadow 00:10:52 40° 245° (WSW) 878 3.3 -18.4°
Maximum altitude 00:12:12 61° 306° (NW) 685 3.2 -18.2°
Drops below altitude 10° 00:16:40 10° 27° (NNE) 1,998 6.8 -17.6°
Sets 00:19:03 0° 31° (NNE) 2,934 8.0 -17.3°
